| time (UTC) | temp C | wind direction | speed KPH | gust KPH | rain 1hr cm | rain 24hr cm | rain mn cm | humidity % | barometer mb |
| 20260510033954 | 16 | 245 | 14.5 | 27.4 | 0.00 | 0.43 | 0.43 | 74 | 1013.2 |
| 20260510033450 | 16 | 220 | 16.1 | 22.5 | 0.00 | 0.43 | 0.43 | 73 | 1013.1 |
| 20260510032948 | 16 | 236 | 17.7 | 19.3 | 0.00 | 0.43 | 0.43 | 74 | 1013.0 |
| 20260510032445 | 16 | 221 | 11.3 | 22.5 | 0.00 | 0.43 | 0.43 | 73 | 1013.0 |
| 20260510031944 | 16 | 212 | 11.3 | 22.5 | 0.00 | 0.43 | 0.43 | 73 | 1012.7 |
| 20260510031440 | 16 | 235 | 9.7 | 17.7 | 0.00 | 0.43 | 0.43 | 73 | 1013.0 |
| 20260510030936 | 16 | 236 | 14.5 | 27.4 | 0.00 | 0.43 | 0.43 | 73 | 1013.0 |
| 20260510030432 | 16 | 239 | 11.3 | 16.1 | 0.00 | 0.43 | 0.43 | 73 | 1012.8 |
| 20260510025930 | 15 | 252 | 6.4 | 16.1 | 0.00 | 0.43 | 0.43 | 74 | 1012.7 |
| 20260510025427 | 15 | 215 | 14.5 | 17.7 | 0.00 | 0.43 | 0.43 | 74 | 1012.8 |
| 20260510024924 | 15 | 266 | 3.2 | 11.3 | 0.00 | 0.43 | 0.43 | 74 | 1012.8 |
| 20260510024420 | 15 | 241 | 9.7 | 12.9 | 0.00 | 0.43 | 0.43 | 74 | 1012.7 |
| 20260510023916 | 16 | 223 | 8.0 | 16.1 | 0.00 | 0.43 | 0.43 | 73 | 1012.6 |
| 20260510023413 | 16 | 232 | 9.7 | 17.7 | 0.00 | 0.43 | 0.43 | 73 | 1012.6 |
| 20260510022910 | 16 | 241 | 9.7 | 17.7 | 0.00 | 0.43 | 0.43 | 72 | 1012.3 |
| 20260510022409 | 16 | 207 | 8.0 | 20.9 | 0.00 | 0.43 | 0.43 | 72 | 1012.3 |
| 20260510021908 | 16 | 237 | 12.9 | 19.3 | 0.00 | 0.43 | 0.43 | 72 | 1012.4 |
| 20260510021407 | 16 | 229 | 11.3 | 20.9 | 0.00 | 0.43 | 0.43 | 72 | 1012.4 |
| 20260510020903 | 16 | 230 | 11.3 | 19.3 | 0.00 | 0.43 | 0.43 | 72 | 1012.6 |
| 20260510020358 | 16 | 242 | 8.0 | 14.5 | 0.00 | 0.43 | 0.43 | 72 | 1012.3 |
| 20260510015853 | 16 | 235 | 11.3 | 12.9 | 0.00 | 0.43 | 0.43 | 72 | 1012.3 |
| 20260510015349 | 16 | 192 | 1.6 | 11.3 | 0.00 | 0.43 | 0.43 | 72 | 1012.1 |
| 20260510014845 | 16 | 240 | 8.0 | 11.3 | 0.00 | 0.43 | 0.43 | 71 | 1012.0 |
| 20260510014342 | 16 | 239 | 4.8 | 11.3 | 0.00 | 0.43 | 0.43 | 71 | 1012.0 |
| 20260510013838 | 16 | 219 | 9.7 | 14.5 | 0.00 | 0.43 | 0.43 | 71 | 1012.0 |
| 20260510013334 | 16 | 208 | 6.4 | 12.9 | 0.00 | 0.43 | 0.43 | 71 | 1011.7 |
| 20260510012829 | 16 | 224 | 12.9 | 16.1 | 0.00 | 0.43 | 0.43 | 70 | 1011.8 |
| 20260510012324 | 16 | 241 | 11.3 | 14.5 | 0.00 | 0.43 | 0.43 | 70 | 1011.7 |
| 20260510011819 | 16 | 225 | 11.3 | 14.5 | 0.00 | 0.43 | 0.43 | 70 | 1011.7 |
| 20260510011315 | 16 | 233 | 9.7 | 11.3 | 0.00 | 0.43 | 0.43 | 70 | 1011.8 |
| 20260510010811 | 16 | 197 | 4.8 | 12.9 | 0.00 | 0.43 | 0.43 | 69 | 1011.7 |
| 20260510010309 | 16 | 223 | 9.7 | 11.3 | 0.00 | 0.43 | 0.43 | 69 | 1011.4 |
| 20260510005805 | 16 | 231 | 14.5 | 16.1 | 0.00 | 0.43 | 0.43 | 69 | 1011.7 |
| 20260510005301 | 16 | 212 | 6.4 | 12.9 | 0.00 | 0.43 | 0.43 | 68 | 1011.5 |
| 20260510004759 | 17 | 222 | 9.7 | 19.3 | 0.00 | 0.43 | 0.43 | 67 | 1011.5 |
| 20260510004257 | 17 | 255 | 8.0 | 17.7 | 0.00 | 0.43 | 0.43 | 67 | 1011.5 |
| 20260510003754 | 17 | 239 | 9.7 | 16.1 | 0.00 | 0.43 | 0.43 | 67 | 1011.4 |
| 20260510003251 | 17 | 270 | 3.2 | 16.1 | 0.00 | 0.43 | 0.43 | 66 | 1011.3 |
| 20260510002749 | 17 | 226 | 11.3 | 12.9 | 0.00 | 0.43 | 0.43 | 67 | 1011.4 |
| 20260510002247 | 17 | 218 | 11.3 | 17.7 | 0.00 | 0.43 | 0.43 | 66 | 1011.3 |
| 20260510001743 | 17 | 224 | 14.5 | 14.5 | 0.00 | 0.43 | 0.43 | 66 | 1011.2 |
| 20260510001242 | 17 | 203 | 4.8 | 11.3 | 0.00 | 0.43 | 0.43 | 66 | 1011.1 |
| 20260510000737 | 17 | 220 | 11.3 | 12.9 | 0.00 | 0.43 | 0.43 | 65 | 1011.0 |
| 20260510000235 | 17 | 213 | 8.0 | 14.5 | 0.00 | 0.43 | 0.43 | 65 | 1011.0 |
| 20260509235732 | 17 | 244 | 9.7 | 14.5 | 0.00 | 0.43 | 0.43 | 64 | 1010.9 |
| 20260509235228 | 17 | 265 | 6.4 | 20.9 | 0.00 | 0.43 | 0.43 | 63 | 1010.9 |
| 20260509234724 | 18 | 220 | 8.0 | 12.9 | 0.00 | 0.43 | 0.43 | 63 | 1010.9 |
| 20260509234221 | 18 | 249 | 8.0 | 16.1 | 0.00 | 0.43 | 0.43 | 63 | 1010.8 |
| 20260509233720 | 18 | 221 | 8.0 | 19.3 | 0.00 | 0.43 | 0.43 | 62 | 1010.8 |
| 20260509233217 | 18 | 233 | 8.0 | 17.7 | 0.00 | 0.43 | 0.43 | 62 | 1011.0 |
| 20260509232713 | 18 | 246 | 8.0 | 24.1 | 0.00 | 0.43 | 0.43 | 61 | 1010.7 |
| 20260509232210 | 18 | 278 | 11.3 | 19.3 | 0.00 | 0.43 | 0.43 | 62 | 1010.8 |
| 20260509231706 | 18 | 222 | 16.1 | 22.5 | 0.00 | 0.43 | 0.43 | 61 | 1010.9 |
| 20260509231203 | 18 | 274 | 4.8 | 22.5 | 0.00 | 0.43 | 0.43 | 61 | 1010.8 |
| 20260509230700 | 18 | 240 | 17.7 | 27.4 | 0.00 | 0.43 | 0.43 | 60 | 1010.8 |
| 20260509230151 | 18 | 253 | 8.0 | 19.3 | 0.00 | 0.43 | 0.43 | 60 | 1010.8 |
| 20260509225647 | 18 | 251 | 4.8 | 17.7 | 0.00 | 0.43 | 0.43 | 61 | 1010.9 |
| 20260509225143 | 18 | 232 | 9.7 | 17.7 | 0.00 | 0.43 | 0.43 | 61 | 1011.0 |
| 20260509224639 | 18 | 255 | 6.4 | 20.9 | 0.00 | 0.43 | 0.43 | 61 | 1011.1 |
| 20260509224136 | 18 | 212 | 17.7 | 29.0 | 0.00 | 0.43 | 0.43 | 60 | 1011.0 |
| 20260509223633 | 18 | 271 | 14.5 | 22.5 | 0.00 | 0.43 | 0.43 | 60 | 1011.0 |
| 20260509223130 | 18 | 280 | 14.5 | 22.5 | 0.00 | 0.43 | 0.43 | 60 | 1011.1 |
| 20260509222627 | 18 | 254 | 11.3 | 22.5 | 0.00 | 0.43 | 0.43 | 59 | 1011.1 |
| 20260509222122 | 18 | 237 | 24.1 | 30.6 | 0.00 | 0.43 | 0.43 | 60 | 1011.1 |
| 20260509221619 | 19 | 247 | 17.7 | 19.3 | 0.00 | 0.43 | 0.43 | 59 | 1011.0 |
| 20260509221114 | 18 | 222 | 12.9 | 24.1 | 0.00 | 0.43 | 0.43 | 62 | 1011.2 |
| 20260509220610 | 19 | 217 | 6.4 | 25.7 | 0.00 | 0.43 | 0.43 | 60 | 1011.1 |
| 20260509220107 | 19 | 216 | 11.3 | 12.9 | 0.00 | 0.43 | 0.43 | 60 | 1011.1 |
| 20260509215602 | 19 | 262 | 9.7 | 32.2 | 0.00 | 0.43 | 0.43 | 59 | 1011.1 |
| 20260509215100 | 19 | 232 | 12.9 | 22.5 | 0.00 | 0.43 | 0.43 | 59 | 1011.2 |
| 20260509214557 | 19 | 210 | 8.0 | 20.9 | 0.00 | 0.43 | 0.43 | 61 | 1011.3 |
| 20260509214053 | 18 | 231 | 11.3 | 30.6 | 0.00 | 0.43 | 0.43 | 61 | 1011.2 |
| 20260509213549 | 18 | 239 | 6.4 | 24.1 | 0.00 | 0.43 | 0.43 | 62 | 1011.3 |
| 20260509213046 | 18 | 284 | 8.0 | 25.7 | 0.00 | 0.43 | 0.43 | 62 | 1011.2 |
| 20260509212544 | 18 | 258 | 14.5 | 32.2 | 0.00 | 0.43 | 0.43 | 61 | 1011.3 |
| 20260509212041 | 18 | 264 | 12.9 | 29.0 | 0.00 | 0.43 | 0.43 | 62 | 1011.3 |
| 20260509211536 | 18 | 249 | 8.0 | 16.1 | 0.00 | 0.43 | 0.43 | 63 | 1011.2 |
| 20260509211033 | 18 | 242 | 16.1 | 20.9 | 0.00 | 0.43 | 0.43 | 64 | 1011.2 |
| 20260509210530 | 18 | 242 | 14.5 | 29.0 | 0.00 | 0.43 | 0.43 | 63 | 1011.3 |
| 20260509210026 | 18 | 233 | 22.5 | 40.2 | 0.00 | 0.43 | 0.43 | 62 | 1011.1 |
| 20260509205525 | 18 | 204 | 16.1 | 20.9 | 0.00 | 0.43 | 0.43 | 63 | 1011.1 |
| 20260509205021 | 18 | 218 | 9.7 | 27.4 | 0.00 | 0.43 | 0.43 | 64 | 1011.1 |
| 20260509204518 | 18 | 257 | 9.7 | 14.5 | 0.00 | 0.43 | 0.43 | 63 | 1011.2 |
| 20260509204014 | 18 | 223 | 12.9 | 25.7 | 0.00 | 0.43 | 0.43 | 64 | 1011.2 |
| 20260509203510 | 18 | 239 | 6.4 | 17.7 | 0.00 | 0.43 | 0.43 | 66 | 1011.2 |
| 20260509203009 | 18 | 229 | 8.0 | 17.7 | 0.00 | 0.43 | 0.43 | 67 | 1011.3 |
| 20260509202509 | 18 | 242 | 12.9 | 24.1 | 0.00 | 0.43 | 0.43 | 67 | 1011.2 |
| 20260509202004 | 18 | 288 | 11.3 | 17.7 | 0.00 | 0.43 | 0.43 | 69 | 1011.4 |
| 20260509201459 | 18 | 199 | 8.0 | 20.9 | 0.00 | 0.43 | 0.43 | 68 | 1011.3 |
| 20260509200957 | 17 | 209 | 16.1 | 24.1 | 0.00 | 0.43 | 0.43 | 67 | 1011.5 |
| 20260509200452 | 18 | 220 | 16.1 | 17.7 | 0.00 | 0.43 | 0.43 | 68 | 1011.5 |
| 20260509195948 | 18 | 227 | 24.1 | 27.4 | 0.00 | 0.43 | 0.43 | 67 | 1011.8 |
| 20260509195444 | 18 | 242 | 11.3 | 19.3 | 0.00 | 0.43 | 0.43 | 67 | 1011.8 |
| 20260509194944 | 17 | 228 | 14.5 | 19.3 | 0.00 | 0.43 | 0.43 | 69 | 1011.7 |
| 20260509194439 | 17 | 243 | 6.4 | 14.5 | 0.00 | 0.43 | 0.43 | 70 | 1011.7 |
| 20260509193937 | 17 | 232 | 6.4 | 22.5 | 0.00 | 0.43 | 0.43 | 70 | 1011.9 |
| 20260509193436 | 17 | 264 | 12.9 | 17.7 | 0.00 | 0.43 | 0.43 | 69 | 1011.8 |
| 20260509192932 | 17 | 241 | 6.4 | 27.4 | 0.00 | 0.43 | 0.43 | 70 | 1011.7 |
| 20260509192429 | 18 | 239 | 9.7 | 22.5 | 0.00 | 0.43 | 0.43 | 69 | 1011.8 |
| 20260509191924 | 17 | 263 | 4.8 | 17.7 | 0.00 | 0.43 | 0.43 | 71 | 1011.9 |
| 20260509191420 | 17 | 248 | 12.9 | 22.5 | 0.00 | 0.43 | 0.43 | 71 | 1011.8 |
| 20260509190916 | 17 | 272 | 9.7 | 14.5 | 0.00 | 0.43 | 0.43 | 72 | 1011.8 |
| 20260509190414 | 17 | 252 | 6.4 | 20.9 | 0.00 | 0.43 | 0.43 | 72 | 1011.8 |
| 20260509185911 | 17 | 232 | 14.5 | 20.9 | 0.00 | 0.43 | 0.43 | 74 | 1011.9 |
| 20260509185408 | 17 | 247 | 8.0 | 24.1 | 0.00 | 0.43 | 0.43 | 74 | 1011.8 |
| 20260509184905 | 17 | 214 | 12.9 | 16.1 | 0.00 | 0.43 | 0.43 | 76 | 1011.8 |
| 20260509184401 | 16 | 220 | 3.2 | 11.3 | 0.00 | 0.43 | 0.43 | 76 | 1011.8 |
| 20260509183859 | 17 | 243 | 6.4 | 8.0 | 0.00 | 0.43 | 0.43 | 77 | 1011.9 |
| 20260509183353 | 16 | 205 | 8.0 | 11.3 | 0.00 | 0.43 | 0.43 | 78 | 1011.9 |
| 20260509182849 | 16 | 247 | 4.8 | 9.7 | 0.00 | 0.43 | 0.43 | 81 | 1011.9 |
| 20260509182347 | 15 | 204 | 3.2 | 9.7 | 0.00 | 0.43 | 0.43 | 81 | 1011.8 |
| 20260509181844 | 15 | 196 | 4.8 | 9.7 | 0.00 | 0.43 | 0.43 | 83 | 1011.7 |
| 20260509181341 | 15 | 262 | 8.0 | 12.9 | 0.00 | 0.43 | 0.43 | 84 | 1011.9 |
| 20260509180838 | 15 | 210 | 9.7 | 14.5 | 0.00 | 0.43 | 0.43 | 84 | 1011.9 |
| 20260509180334 | 15 | 223 | 8.0 | 11.3 | 0.00 | 0.43 | 0.43 | 86 | 1011.9 |
| 20260509175831 | 14 | 205 | 8.0 | 12.9 | 0.00 | 0.43 | 0.43 | 86 | 1011.9 |
| 20260509175327 | 14 | 205 | 6.4 | 17.7 | 0.00 | 0.43 | 0.43 | 87 | 1011.9 |
| 20260509174823 | 14 | 200 | 4.8 | 12.9 | 0.00 | 0.43 | 0.43 | 87 | 1011.9 |
| 20260509174319 | 14 | 210 | 4.8 | 14.5 | 0.00 | 0.43 | 0.43 | 87 | 1011.7 |
| 20260509173815 | 14 | 209 | 11.3 | 11.3 | 0.00 | 0.43 | 0.43 | 87 | 1011.9 |
| 20260509173311 | 13 | 222 | 8.0 | 11.3 | 0.00 | 0.43 | 0.43 | 87 | 1012.0 |
| 20260509172807 | 13 | 213 | 6.4 | 12.9 | 0.00 | 0.43 | 0.43 | 87 | 1012.1 |
| 20260509172306 | 13 | 189 | 4.8 | 9.7 | 0.00 | 0.43 | 0.43 | 89 | 1012.1 |
| 20260509171800 | 13 | 199 | 6.4 | 16.1 | 0.00 | 0.43 | 0.43 | 89 | 1012.0 |
| 20260509171256 | 13 | 221 | 9.7 | 12.9 | 0.00 | 0.43 | 0.43 | 90 | 1012.2 |
| 20260509170753 | 13 | 214 | 4.8 | 9.7 | 0.00 | 0.43 | 0.43 | 91 | 1012.4 |
| 20260509170249 | 13 | 207 | 4.8 | 9.7 | 0.00 | 0.43 | 0.43 | 90 | 1012.2 |
| 20260509165748 | 13 | 211 | 4.8 | 9.7 | 0.00 | 0.43 | 0.43 | 91 | 1012.3 |
| 20260509165243 | 13 | 217 | 6.4 | 8.0 | 0.00 | 0.43 | 0.43 | 91 | 1012.2 |
| 20260509164739 | 13 | 264 | 4.8 | 9.7 | 0.00 | 0.43 | 0.43 | 91 | 1012.2 |
| 20260509164235 | 13 | 223 | 6.4 | 8.0 | 0.00 | 0.43 | 0.43 | 90 | 1011.9 |
| 20260509163732 | 13 | 198 | 4.8 | 9.7 | 0.00 | 0.43 | 0.43 | 90 | 1012.0 |
| 20260509163229 | 13 | 222 | 11.3 | 14.5 | 0.00 | 0.43 | 0.43 | 89 | 1012.0 |
| 20260509162727 | 13 | 212 | 6.4 | 11.3 | 0.00 | 0.43 | 0.43 | 90 | 1012.1 |
| 20260509162221 | 12 | 228 | 8.0 | 8.0 | 0.00 | 0.43 | 0.43 | 91 | 1012.2 |
| 20260509161717 | 12 | 201 | 4.8 | 11.3 | 0.00 | 0.43 | 0.43 | 91 | 1012.1 |
| 20260509161214 | 12 | 151 | 4.8 | 4.8 | 0.00 | 0.43 | 0.43 | 92 | 1012.1 |
| 20260509160709 | 12 | 208 | 0.0 | 6.4 | 0.00 | 0.43 | 0.43 | 92 | 1012.1 |
| 20260509160205 | 12 | 197 | 4.8 | 9.7 | 0.00 | 0.43 | 0.43 | 92 | 1012.2 |
| 20260509155701 | 12 | 154 | 4.8 | 8.0 | 0.00 | 0.43 | 0.43 | 92 | 1012.3 |
| 20260509155157 | 12 | 195 | 3.2 | 9.7 | 0.00 | 0.43 | 0.43 | 92 | 1012.6 |
| 20260509154653 | 12 | 173 | 0.0 | 9.7 | 0.00 | 0.43 | 0.43 | 92 | 1012.6 |
| 20260509154151 | 12 | 197 | 4.8 | 6.4 | 0.00 | 0.43 | 0.43 | 92 | 1012.6 |
| 20260509153647 | 12 | 203 | 6.4 | 8.0 | 0.00 | 0.43 | 0.43 | 92 | 1012.6 |
| 20260509153144 | 12 | 206 | 3.2 | 8.0 | 0.00 | 0.43 | 0.43 | 92 | 1012.6 |
| 20260509152639 | 12 | 184 | 3.2 | 9.7 | 0.05 | 0.43 | 0.43 | 93 | 1012.4 |
| 20260509152137 | 12 | 212 | 3.2 | 6.4 | 0.05 | 0.43 | 0.43 | 93 | 1012.7 |
| 20260509151634 | 12 | 154 | 4.8 | 4.8 | 0.00 | 0.43 | 0.43 | 93 | 1012.6 |
| 20260509151131 | 12 | 176 | 3.2 | 3.2 | 0.00 | 0.43 | 0.43 | 93 | 1012.8 |
| 20260509150629 | 12 | 194 | 3.2 | 3.2 | 0.00 | 0.43 | 0.43 | 93 | 1012.8 |
| 20260509150127 | 12 | 180 | 1.6 | 3.2 | 0.00 | 0.43 | 0.43 | 93 | 1012.8 |
| 20260509145623 | 11 | 192 | 1.6 | 8.0 | 0.00 | 0.43 | 0.43 | 94 | 1012.8 |
| 20260509145118 | 11 | 206 | 3.2 | 4.8 | 0.00 | 0.43 | 0.43 | 94 | 1012.9 |
| 20260509144615 | 11 | 161 | 0.0 | 3.2 | 0.00 | 0.43 | 0.43 | 94 | 1012.9 |
| 20260509144112 | 11 | 166 | 1.6 | 1.6 | 0.00 | 0.43 | 0.43 | 95 | 1012.9 |
| 20260509143609 | 11 | 198 | 1.6 | 4.8 | 0.00 | 0.43 | 0.43 | 95 | 1013.1 |
| 20260509143107 | 11 | 205 | 4.8 | 4.8 | 0.00 | 0.43 | 0.43 | 95 | 1012.9 |
| 20260509142602 | 11 | 192 | 1.6 | 3.2 | 0.00 | 0.43 | 0.43 | 95 | 1012.9 |
| 20260509142058 | 11 | 203 | 1.6 | 3.2 | 0.00 | 0.43 | 0.43 | 96 | 1012.7 |
| 20260509141554 | 11 | 197 | 3.2 | 4.8 | 0.00 | 0.43 | 0.43 | 96 | 1012.8 |
| 20260509141051 | 11 | 195 | 3.2 | 3.2 | 0.05 | 0.43 | 0.43 | 96 | 1012.6 |
| 20260509140548 | 11 | 192 | 3.2 | 3.2 | 0.05 | 0.43 | 0.43 | 96 | 1012.9 |
| 20260509140046 | 11 | 209 | 3.2 | 3.2 | 0.00 | 0.43 | 0.43 | 96 | 1012.9 |
| 20260509135543 | 11 | 212 | 1.6 | 6.4 | 0.13 | 0.43 | 0.43 | 95 | 1013.0 |
| 20260509135041 | 11 | 201 | 3.2 | 4.8 | 0.13 | 0.41 | 0.41 | 96 | 1012.9 |
| 20260509134537 | 11 | 213 | 3.2 | 4.8 | 0.13 | 0.41 | 0.41 | 96 | 1013.1 |
| 20260509134035 | 11 | 212 | 3.2 | 6.4 | 0.13 | 0.38 | 0.38 | 96 | 1012.9 |
| 20260509133532 | 11 | 210 | 4.8 | 8.0 | 0.13 | 0.38 | 0.38 | 96 | 1012.8 |
| 20260509133029 | 11 | 162 | 0.0 | 8.0 | 0.05 | 0.38 | 0.38 | 96 | 1012.9 |
| 20260509132528 | 11 | 204 | 3.2 | 6.4 | 0.00 | 0.36 | 0.36 | 96 | 1012.8 |
| 20260509132026 | 11 | 198 | 4.8 | 6.4 | 0.00 | 0.36 | 0.36 | 97 | 1012.9 |
| 20260509131521 | 11 | 205 | 6.4 | 8.0 | 0.00 | 0.36 | 0.36 | 97 | 1013.1 |
| 20260509131018 | 11 | 209 | 1.6 | 8.0 | 0.00 | 0.36 | 0.36 | 97 | 1013.0 |
| 20260509130514 | 10 | 194 | 0.0 | 4.8 | 0.05 | 0.36 | 0.36 | 97 | 1012.8 |
| 20260509130011 | 10 | 221 | 3.2 | 4.8 | 0.05 | 0.36 | 0.36 | 97 | 1013.0 |
| 20260509125507 | 10 | 174 | 1.6 | 4.8 | 0.05 | 0.36 | 0.36 | 97 | 1013.0 |
| 20260509125003 | 10 | 198 | 4.8 | 6.4 | 0.13 | 0.36 | 0.36 | 96 | 1013.2 |
| 20260509124501 | 10 | 198 | 1.6 | 4.8 | 0.13 | 0.33 | 0.33 | 97 | 1013.3 |
| 20260509123958 | 10 | 206 | 4.8 | 8.0 | 0.13 | 0.33 | 0.33 | 96 | 1013.4 |
| 20260509123455 | 10 | 207 | 4.8 | 8.0 | 0.18 | 0.33 | 0.33 | 96 | 1013.3 |
| 20260509122951 | 10 | 219 | 6.4 | 8.0 | 0.05 | 0.30 | 0.30 | 96 | 1013.4 |
| 20260509122448 | 10 | 278 | 1.6 | 4.8 | 0.05 | 0.28 | 0.28 | 96 | 1013.3 |
| 20260509121945 | 10 | 218 | 4.8 | 4.8 | 0.13 | 0.28 | 0.28 | 96 | 1013.2 |
| 20260509121442 | 10 | 168 | 3.2 | 4.8 | 0.05 | 0.28 | 0.28 | 96 | 1013.4 |
| 20260509120940 | 10 | 216 | 8.0 | 8.0 | 0.05 | 0.28 | 0.28 | 96 | 1013.4 |
| 20260509120438 | 10 | 199 | 3.2 | 4.8 | 0.13 | 0.25 | 0.25 | 95 | 1013.3 |
| 20260509115935 | 10 | 201 | 4.8 | 4.8 | 0.05 | 0.25 | 0.25 | 95 | 1013.4 |
| 20260509115432 | 10 | 190 | 3.2 | 4.8 | 0.05 | 0.23 | 0.23 | 95 | 1013.4 |
| 20260509114929 | 10 | 245 | 8.0 | 11.3 | 0.05 | 0.23 | 0.23 | 95 | 1013.4 |
| 20260509114428 | 10 | 249 | 4.8 | 8.0 | 0.00 | 0.23 | 0.23 | 96 | 1013.4 |
| 20260509113927 | 10 | 294 | 1.6 | 3.2 | 0.13 | 0.23 | 0.23 | 96 | 1013.1 |
| 20260509113424 | 10 | 194 | 1.6 | 3.2 | 0.13 | 0.23 | 0.23 | 96 | 1013.2 |
| 20260509112921 | 10 | 213 | 3.2 | 3.2 | 0.05 | 0.20 | 0.20 | 96 | 1013.1 |
| 20260509112418 | 10 | 160 | 0.0 | 3.2 | 0.05 | 0.20 | 0.20 | 96 | 1013.3 |
| 20260509111915 | 10 | 139 | 3.2 | 4.8 | 0.00 | 0.20 | 0.20 | 96 | 1013.0 |
| 20260509111412 | 10 | 180 | 1.6 | 4.8 | 0.00 | 0.20 | 0.20 | 96 | 1013.2 |
| 20260509110910 | 10 | 165 | 0.0 | 3.2 | 0.05 | 0.20 | 0.20 | 95 | 1012.9 |
| 20260509110405 | 10 | 117 | 1.6 | 3.2 | 0.05 | 0.20 | 0.20 | 95 | 1012.9 |
| 20260509105904 | 10 | 71 | 3.2 | 3.2 | 0.00 | 0.18 | 0.18 | 95 | 1013.0 |
| 20260509105402 | 10 | 172 | 0.0 | 0.0 | 0.05 | 0.18 | 0.18 | 95 | 1012.8 |
| 20260509104858 | 10 | 172 | 0.0 | 4.8 | 0.05 | 0.18 | 0.18 | 95 | 1012.9 |
| 20260509104355 | 10 | 186 | 0.0 | 0.0 | 0.00 | 0.18 | 0.18 | 95 | 1013.1 |
| 20260509103853 | 10 | 186 | 0.0 | 1.6 | 0.05 | 0.18 | 0.18 | 95 | 1012.8 |
| 20260509103350 | 10 | 180 | 1.6 | 3.2 | 0.05 | 0.18 | 0.18 | 94 | 1012.8 |
| 20260509102849 | 10 | 160 | 0.0 | 4.8 | 0.00 | 0.18 | 0.18 | 94 | 1012.9 |
| 20260509102345 | 10 | 161 | 3.2 | 4.8 | 0.00 | 0.18 | 0.18 | 94 | 1012.9 |
| 20260509101841 | 10 | 150 | 3.2 | 6.4 | 0.05 | 0.18 | 0.18 | 94 | 1012.8 |
| 20260509101337 | 10 | 206 | 4.8 | 6.4 | 0.05 | 0.18 | 0.18 | 93 | 1013.1 |
| 20260509100835 | 10 | 233 | 0.0 | 3.2 | 0.00 | 0.15 | 0.15 | 93 | 1013.0 |
| 20260509100332 | 10 | 184 | 3.2 | 4.8 | 0.05 | 0.15 | 0.15 | 92 | 1013.0 |
| 20260509095829 | 10 | 160 | 1.6 | 1.6 | 0.05 | 0.15 | 0.15 | 91 | 1013.1 |
| 20260509095326 | 10 | 199 | 0.0 | 0.0 | 0.05 | 0.15 | 0.15 | 90 | 1013.1 |
| 20260509094823 | 11 | 199 | 0.0 | 0.0 | 0.05 | 0.15 | 0.15 | 89 | 1013.1 |
| 20260509094320 | 11 | 199 | 0.0 | 0.0 | 0.05 | 0.15 | 0.15 | 88 | 1013.3 |
| 20260509093818 | 11 | 199 | 0.0 | 0.0 | 0.05 | 0.15 | 0.15 | 88 | 1013.3 |
| 20260509093315 | 11 | 199 | 0.0 | 0.0 | 0.00 | 0.13 | 0.13 | 88 | 1013.4 |
| 20260509092813 | 11 | 199 | 0.0 | 0.0 | 0.05 | 0.13 | 0.13 | 88 | 1013.5 |
| 20260509092311 | 11 | 199 | 0.0 | 0.0 | 0.13 | 0.13 | 0.13 | 88 | 1013.6 |
| 20260509091809 | 11 | 199 | 0.0 | 0.0 | 0.05 | 0.10 | 0.10 | 87 | 1013.4 |
| 20260509091305 | 11 | 244 | 6.4 | 6.4 | 0.00 | 0.10 | 0.10 | 86 | 1013.6 |
| 20260509090802 | 11 | 255 | 0.0 | 4.8 | 0.00 | 0.10 | 0.10 | 86 | 1013.8 |
| 20260509090259 | 11 | 198 | 1.6 | 6.4 | 0.13 | 0.10 | 0.10 | 85 | 1013.3 |
| 20260509085757 | 11 | 199 | 3.2 | 8.0 | 0.13 | 0.10 | 0.10 | 84 | 1013.6 |
| 20260509085254 | 11 | 237 | 6.4 | 8.0 | 0.05 | 0.08 | 0.08 | 84 | 1013.7 |
| 20260509084750 | 11 | 180 | 4.8 | 11.3 | 0.13 | 0.08 | 0.08 | 82 | 1013.3 |
| 20260509084247 | 11 | 237 | 3.2 | 6.4 | 0.30 | 0.08 | 0.08 | 82 | 1013.4 |
| 20260509083745 | 11 | 255 | 4.8 | 12.9 | 0.23 | 0.05 | 0.05 | 80 | 1013.3 |
| 20260509083242 | 12 | 230 | 8.0 | 12.9 | 0.13 | 0.03 | 0.03 | 77 | 1013.4 |
| 20260509082738 | 12 | 254 | 6.4 | 11.3 | 0.00 | 0.00 | 0.00 | 73 | 1013.5 |
| 20260509082235 | 12 | 219 | 19.3 | 19.3 | 0.00 | 0.00 | 0.00 | 70 | 1013.5 |
| 20260509081732 | 13 | 261 | 14.5 | 24.1 | 0.00 | 0.00 | 0.00 | 69 | 1013.5 |
| 20260509081229 | 13 | 216 | 20.9 | 29.0 | 0.00 | 0.00 | 0.00 | 67 | 1013.3 |
| 20260509080728 | 13 | 210 | 16.1 | 22.5 | 0.00 | 0.00 | 0.00 | 65 | 1013.3 |
| 20260509080225 | 13 | 243 | 6.4 | 20.9 | 0.00 | 0.00 | 0.00 | 64 | 1012.8 |
| 20260509075723 | 13 | 225 | 11.3 | 24.1 | 0.00 | 0.00 | 0.00 | 64 | 1012.8 |
| 20260509075220 | 13 | 218 | 8.0 | 16.1 | 0.00 | 0.00 | 0.00 | 62 | 1012.8 |
| 20260509074717 | 13 | 237 | 6.4 | 22.5 | 0.00 | 0.00 | 0.00 | 61 | 1012.4 |
| 20260509074214 | 14 | 244 | 11.3 | 20.9 | 0.00 | 0.00 | 0.00 | 59 | 1012.2 |
| 20260509073711 | 14 | 229 | 20.9 | 20.9 | 0.00 | 0.00 | 0.00 | 59 | 1012.1 |
| 20260509073207 | 15 | 239 | 9.7 | 19.3 | 0.00 | 0.00 | 0.00 | 56 | 1012.1 |
| 20260509072703 | 14 | 221 | 12.9 | 19.3 | 0.00 | 0.00 | 0.00 | 55 | 1012.1 |
| 20260509072200 | 15 | 223 | 6.4 | 17.7 | 0.00 | 0.00 | 0.00 | 55 | 1012.1 |
| 20260509071657 | 15 | 221 | 14.5 | 25.7 | 0.00 | 0.00 | 0.00 | 54 | 1011.9 |
| 20260509071155 | 14 | 268 | 8.0 | 32.2 | 0.00 | 0.00 | 0.00 | 54 | 1012.0 |
| 20260509070651 | 14 | 251 | 9.7 | 16.1 | 0.00 | 0.00 | 0.00 | 54 | 1012.2 |
| 20260509070148 | 14 | 146 | 6.4 | 20.9 | 0.00 | 0.00 | 0.00 | 54 | 1011.8 |
| 20260509065644 | 14 | 227 | 11.3 | 17.7 | 0.00 | 0.00 | 0.00 | 54 | 1011.9 |
| 20260509065140 | 14 | 180 | 3.2 | 9.7 | 0.00 | 0.00 | 0.00 | 55 | 1011.8 |
| 20260509064637 | 14 | 205 | 6.4 | 14.5 | 0.00 | 0.00 | 0.00 | 54 | 1011.8 |
| 20260509064135 | 15 | 144 | 4.8 | 16.1 | 0.00 | 0.00 | 0.00 | 53 | 1011.8 |
| 20260509063632 | 14 | 202 | 11.3 | 16.1 | 0.00 | 0.00 | 0.00 | 54 | 1011.8 |
| 20260509063128 | 14 | 227 | 4.8 | 12.9 | 0.00 | 0.00 | 0.00 | 56 | 1011.7 |
| 20260509062625 | 14 | 214 | 4.8 | 12.9 | 0.00 | 0.00 | 0.00 | 56 | 1012.0 |
| 20260509062122 | 14 | 238 | 6.4 | 11.3 | 0.00 | 0.00 | 0.00 | 56 | 1012.1 |
| 20260509061619 | 14 | 215 | 6.4 | 11.3 | 0.00 | 0.00 | 0.00 | 55 | 1011.9 |
| 20260509061116 | 14 | 214 | 6.4 | 12.9 | 0.00 | 0.00 | 0.00 | 55 | 1012.0 |
| 20260509060614 | 13 | 198 | 1.6 | 4.8 | 0.00 | 0.00 | 0.00 | 59 | 1012.2 |
| 20260509060110 | 13 | 191 | 3.2 | 8.0 | 0.00 | 0.00 | 0.00 | 60 | 1012.2 |
| 20260509055605 | 13 | 229 | 4.8 | 6.4 | 0.00 | 0.00 | 0.00 | 60 | 1012.1 |
| 20260509055101 | 12 | 186 | 4.8 | 4.8 | 0.00 | 0.00 | 0.00 | 64 | 1012.2 |
| 20260509054558 | 13 | 195 | 3.2 | 4.8 | 0.00 | 0.00 | 0.00 | 63 | 1012.3 |
| 20260509054056 | 12 | 180 | 0.0 | 1.6 | 0.00 | 0.00 | 0.00 | 65 | 1012.4 |
| 20260509053555 | 13 | 180 | 3.2 | 4.8 | 0.00 | 0.00 | 0.00 | 62 | 1012.7 |
| 20260509053051 | 13 | 110 | 3.2 | 3.2 | 0.00 | 0.00 | 0.00 | 61 | 1012.4 |
| 20260509052549 | 13 | 123 | 4.8 | 4.8 | 0.00 | 0.00 | 0.00 | 58 | 1012.3 |
| 20260509052047 | 13 | 99 | 0.0 | 4.8 | 0.00 | 0.00 | 0.00 | 58 | 1012.6 |
| 20260509051544 | 13 | 180 | 0.0 | 3.2 | 0.00 | 0.00 | 0.00 | 60 | 1012.7 |
| 20260509051041 | 13 | 172 | 3.2 | 4.8 | 0.00 | 0.00 | 0.00 | 60 | 1012.7 |
| 20260509050538 | 13 | 180 | 1.6 | 3.2 | 0.00 | 0.00 | 0.00 | 59 | 1012.7 |
| 20260509050034 | 14 | 123 | 0.0 | 3.2 | 0.00 | 0.00 | 0.00 | 58 | 1013.0 |
| 20260509045532 | 14 | 190 | 3.2 | 3.2 | 0.00 | 0.00 | 0.00 | 57 | 1013.0 |
| 20260509045029 | 13 | 180 | 0.0 | 3.2 | 0.00 | 0.00 | 0.00 | 58 | 1012.9 |
| 20260509044526 | 14 | 115 | 3.2 | 4.8 | 0.00 | 0.00 | 0.00 | 57 | 1013.0 |
| 20260509044024 | 14 | 197 | 4.8 | 4.8 | 0.00 | 0.00 | 0.00 | 56 | 1012.9 |
| 20260509043520 | 14 | 151 | 0.0 | 3.2 | 0.00 | 0.00 | 0.00 | 57 | 1013.2 |
| 20260509043016 | 14 | 194 | 1.6 | 4.8 | 0.00 | 0.00 | 0.00 | 56 | 1013.3 |
| 20260509042512 | 14 | 194 | 1.6 | 3.2 | 0.00 | 0.00 | 0.00 | 56 | 1013.3 |
| 20260509042008 | 14 | 106 | 0.0 | 1.6 | 0.00 | 0.00 | 0.00 | 55 | 1013.4 |
| 20260509041505 | 15 | 206 | 3.2 | 6.4 | 0.00 | 0.00 | 0.00 | 55 | 1013.2 |
| 20260509041003 | 15 | 201 | 3.2 | 4.8 | 0.00 | 0.00 | 0.00 | 55 | 1013.2 |
| 20260509040501 | 14 | 240 | 1.6 | 3.2 | 0.00 | 0.00 | 0.00 | 56 | 1013.1 |
| 20260509035957 | 14 | 209 | 0.0 | 4.8 | 0.00 | 0.00 | 0.00 | 56 | 1013.5 |
| 20260509035454 | 14 | 180 | 0.0 | 3.2 | 0.00 | 0.00 | 0.00 | 58 | 1013.4 |
| 20260509034951 | 14 | 189 | 3.2 | 4.8 | 0.00 | 0.00 | 0.00 | 56 | 1013.4 |
| 20260509034449 | 15 | 172 | 0.0 | 3.2 | 0.00 | 0.00 | 0.00 | 56 | 1013.5 |